Printer-friendly version
Follow the MPC on Twitter Follow the MPC on Facebook The MPC blog
Minor Planet Center

MPEC 2005-G67 : 2005 EY95

The following Minor Planet Electronic Circular may be linked-to from your own Web pages, but must not otherwise be redistributed electronically.

A form allowing access to any MPEC is at the bottom of this page.


Read MPEC 2005-G66 Read MPEC 2005-G68


M.P.E.C. 2005-G67                                Issued 2005 Apr. 10, 04:29 UT

     The Minor Planet Electronic Circulars contain information on unusual
         minor planets and routine data on comets.  They are published
   on behalf of Commission 20 of the International Astronomical Union by the
          Minor Planet Center, Smithsonian Astrophysical Observatory,
                          Cambridge, MA 02138, U.S.A.

                  Supported in part by the Brinson Foundation
             Prepared using the Tamkin Foundation Computer Network

                              MPC@CFA.HARVARD.EDU
          URL http://cfa-www.harvard.edu/iau/mpc.html  ISSN 1523-6714

                                   2005 EY95

                           Revision to MPEC 2005-E70

Additional Observations:
     K05E95Y  C2002 06 04.45045 19 31 34.39 -23 47 48.0          19.9 R EG067644
     K05E95Y  C2002 06 04.46090 19 31 33.80 -23 47 52.5          20.4 R EG067644
     K05E95Y  C2002 06 04.47128 19 31 33.30 -23 47 57.3          19.8 R EG067644
     K05E95Y  C2002 06 21.28654 19 01 37.83 -27 08 34.5          19.4 R EG067644
     K05E95Y  C2002 06 21.29177 19 01 36.81 -27 08 39.6          18.8 R EG067644
     K05E95Y  C2002 06 21.29986 19 01 35.24 -27 08 47.7          18.8 R EG067644
     K05E95Y  C2002 06 21.30747 19 01 33.70 -27 08 55.3          18.7 R EG067644
     K05E95Y  C2002 06 21.31883 19 01 31.48 -27 09 06.6          18.5 R EG067644
     K05E95Y  C2005 04 08.38397 12 41 04.94 +07 22 48.3          19.2   EG067704
     K05E95Y  C2005 04 08.39350 12 41 02.97 +07 22 50.1          19.9   EG067704
     K05E95Y  C2005 04 08.40314 12 41 01.01 +07 22 53.3          19.4   EG067704
     K05E95Y  C2005 04 08.41269 12 40 58.96 +07 22 55.4          19.5   EG067704
     K05E95Y  C2005 04 08.42230 12 40 57.03 +07 22 56.7          19.5   EG067704
     K05E95Y  C2005 04 09.31845 12 38 01.77 +07 26 06.9          18.6 R EG067699
     K05E95Y  C2005 04 09.33468 12 37 58.47 +07 26 09.8                 EG067699
     K05E95Y  C2005 04 09.35089 12 37 55.20 +07 26 13.0                 EG067699
     K05E95Y  C2005 04 09.36712 12 37 52.05 +07 26 14.8                 EG067699
     K05E95Y  C2005 04 09.91711 12 36 09.52 +07 27 53.1          19.5 V EG067941
     K05E95Y  C2005 04 09.91757 12 36 09.44 +07 27 53.2          19.3 V EG067941
     K05E95Y  C2005 04 09.91896 12 36 09.16 +07 27 53.3          19.4 V EG067941
     K05E95Y  C2005 04 09.91989 12 36 08.96 +07 27 53.4          19.4 V EG067941
     K05E95Y  C2005 04 09.92083 12 36 08.77 +07 27 53.5          19.2 V EG067941

Observer details:
644 Palomar Mountain/NEAT.  Observers E. F. Helin, S. Pravdo, K. Lawrence,
    K. Kuluhiwa, M. Hicks, R. Thicksten.  Measurer R. Matson.  1.2-m Schmidt
    + CCD.
699 Lowell Observatory-LONEOS.  Observer M. E. Van Ness.  0.59-m LONEOS
    Schmidt + CCD.
704 Lincoln Laboratory ETS, New Mexico.  Observers M. Blythe, F. Shelly,
    M. Bezpalko, R. Huber, L. Manguso, D. Torres, R. Kracke, M. McCleary,
    H. Stange, A. Milner.  Measurers J. Stuart, R. Sayer, J. Evans, J. Kommers.
    1.0-m f/2.15 reflector + CCD.
941 Observatorio Pla D'Arguines.  Observer R. Ferrando.  0.36-m f/6.3
    Schmidt-Cassegrain + CCD.

Orbital elements:
2005 EY95                                                            PHA 0.017
Epoch 2005 Jan. 30.0 TT = JDT 2453400.5                 MPC
M  25.69426              (2000.0)            P               Q
n   0.87379542     Peri.  341.87100     +0.57320473     -0.81770302
a   1.0835847      Node    73.12316     +0.75847217     +0.50503894
e   0.5383229      Incl.    3.16881     +0.31009081     +0.27621992
P   1.13           H   20.3           G   0.15           U   4
Residuals in seconds of arc
020604 644  0.3+  0.0     050318 H36  1.6-  0.5+    050401 246  0.2+  0.2+
020604 644  0.4-  0.4+    050318 H36  0.8-  0.1-    050401 246  0.2+  0.3+
020604 644  0.2+  0.4+    050318 H36  1.0+  0.6-    050402 113  0.1+  0.3+
020621 644  0.2-  0.5-    050319 941  1.2-  0.8-    050402 113  0.1+  0.2+
020621 644  0.0   0.3-    050319 941  1.4-  0.6-    050402 113  0.2+  0.1+
020621 644  0.3+  0.3-    050319 941  0.8-  0.3-    050402 113  0.0   0.2+
020621 644  0.2-  0.2-    050319 941  0.8-  0.4-    050402 113  0.1+  0.3+
020621 644  0.1+  0.2-    050319 941  1.7-  0.4-    050402 113  0.1+  0.0
050311 703  0.0   0.0     050322 F65  0.3+  0.2-    050402 113  0.1+  0.3+
050311 703  0.2-  0.5+    050322 F65  0.2+  0.0     050402 113  0.2+  0.1+
050311 703  0.4+  0.6+    050322 F65  0.0   0.1-    050402 113  0.1+  0.1+
050311 703  0.2+  0.6-    050322 F65  0.3+  0.0     050405 699  0.8-  0.3+
050311 703  0.1-  0.5+    050322 F65  0.3+  0.1-    050405 699  0.2+  0.5+
050311 703  0.5-  0.4+    050331 734  0.0   0.5-    050405 699  0.2+  0.6+
050311 703  0.7+  0.6+    050331 734  0.9+  0.7-    050405 699  0.1+  0.9+
050311 703 (6.5-  4.6-)   050331 734  0.1-  0.2+    050405 644  0.1-  0.1+
050311 E12  0.5+  0.4-    050331 734  0.4-  0.3-    050405 644  0.3+  0.2+
050311 E12  0.9+  0.6-    050331 246  0.1+  0.7+    050405 644  0.0   0.2+
050311 E12  0.2-  0.0     050331 246  0.4+  0.5+    050406 703  0.5-  0.6-
050311 E12  0.1-  0.3+    050331 246  0.4+  0.3+    050406 703  1.0-  0.1+
050312 G96  0.1+  0.4-    050331 246  0.3+  0.5+    050406 703  0.9-  0.1+
050312 H36  0.2+  1.2+    050331 246  0.1+  0.9+    050406 703  0.4-  0.3+
050312 G96  0.0   0.2-    050331 246  0.7+  1.2+    050408 704  0.3+  0.0
050312 H36  0.9+  0.8-    050331 113  0.2+  0.1-    050408 704  0.6+  0.3-
050312 H36  0.8+  0.4-    050331 113  0.0   0.1-    050408 704  1.3+  0.7+
050312 G96  0.2+  0.2-    050331 113  0.1-  0.1+    050408 704  0.4+  0.7+
050312 G96  0.0   0.2-    050331 113  0.0   0.2+    050408 704  1.3+  0.0
050312 H06  1.5+  0.6-    050401 699  0.8+  0.1-    050409 699  0.6+  0.0
050312 H06  0.1+  0.2-    050401 699  0.6-  0.7-    050409 699  0.1-  0.2-
050312 H06  0.5-  1.3+    050401 699  0.1+  0.1-    050409 699  0.4-  0.0
050313 A83  1.2-  1.0+    050401 699  0.2+  0.3-    050409 699  0.9+  1.2-
050313 A83  0.0   0.1-    050401 246  0.1-  0.0     050409 941  0.5+  0.1+
050313 A83  0.8+  1.0+    050401 246  0.6+  0.6+    050409 941  0.7+  0.1+
050313 A83  1.0+  1.0+    050401 246  0.3-  0.2+    050409 941  0.5+  0.1-
050314 I77  0.9-  0.6-    050401 246  0.5+  0.1+    050409 941  0.2+  0.1-
050314 I77  0.0   0.7-    050401 246  0.0   0.1-    050409 941  0.1+  0.2-

Ephemeris:
2005 EY95                a,e,i = 1.08, 0.54, 3                   q = 0.5003
Date    TT    R. A. (2000) Decl.     Delta      r     Elong.  Phase     V
2005 04 10    12 35.90   +07 28.3    0.339    1.329   161.9    13.6    19.4
2005 04 20    12 12.63   +07 27.9    0.430    1.391   149.0    21.8    20.2
2005 04 30    12 01.12   +06 48.8    0.534    1.447   137.5    28.1    21.0
2005 05 10    11 57.47   +05 47.6    0.648    1.495   127.6    32.4    21.6
2005 05 20    11 59.18   +04 32.0    0.768    1.538   118.9    35.2    22.1

Gareth V. Williams           (C) Copyright 2005 MPC           M.P.E.C. 2005-G67

Read MPEC 2005-G66 Read MPEC 2005-G68


MPEC number:

Enter an MPEC number in one of the following forms:

  • 1997-B01 (the full form)
  • J97B01 (the packed version of the full form)
  • B01 (the abbreviated form)

Valid HTML 4.01!